weather.gov     
National Weather Service

Regional Weather Roundup
NWS Homepage
This page is being discontinued on March 12, 2014.
The same data is available at this site. Please update your bookmarks.
Thank you, and we apologize for the inconvenience.
Please send an email to SR-SRH.Webmaster@noaa.gov with any concerns.


Current Version
Previous Version:    01  02  03  04  05  06  07  08  09  10  11  12  13  14  15  16  17  18  19  20  21  22  23  24  25  26  27  28  29  30  
   31  32  33  34  35  36  37  38  39  40  41  42  43  44  45  46  47  48  49  50  51  52  53  54  55  56  57  58  59  60  
[Printable]
353
ASUS44 KLIX 220110
RWRLA
LOUISIANA WEATHER ROUNDUP
NATIONAL WEATHER SERVICE NEW ORLEANS LA
800 PM CDT THU AUG 21 2014

NOTE: "FAIR" INDICATES FEW OR NO CLOUDS BELOW 12,000 FEET WITH NO
      SIGNIFICANT WEATHER AND/OR OBSTRUCTIONS TO VISIBILITY.
      SKY/WX - SKY CONDITION AND SIGNIFICANT WEATHER.
      TMP - AIR TEMPERATURE.    DP   - DEWPOINT TEMPERATURE.
      RH  - RELATIVE HUMIDITY.  PRES - PRESSURE.
      HX  - HEAT INDEX.         WCI  - WIND CHILL INDEX.

*  THESE STATIONS ARE NOT NWS OR FAA STATIONS AND ARE NOT UNDER
   NWS QUALITY CONTROL.

LAZ040-048-061>063-065-066-069-220200-
SOUTHEAST LOUISIANA

CITY           SKY/WX    TMP DP  RH WIND       PRES   REMARKS
N.O. AUDUBON     N/A     82  76  82 MISG        N/A
N.O. INTL ARPT CLOUDY    78  73  84 W3        30.11R
N.O. LAKEFRONT MOCLDY    83  73  72 CALM      30.11R
N.O. DOWNTOWN* FAIR      82  70  65 W5        30.11S
SLIDELL        CLEAR     82  74  76 CALM      30.10R
BATON ROUGE    CLOUDY    78  75  90 SE6       30.11R
BOOTHVILLE     PTCLDY    85  76  74 CALM      30.11S
BELLE CHASSE   MOCLDY    78  74  87 CALM      30.10S
BOGALUSA*        N/A     84  74  72 CALM      30.12R
GALLIANO*      NOT AVBL
NEW ROADS*     FAIR      77  74  91 CALM      30.10S
GONZALES*      FAIR      78  78 100 CALM      30.11R
HAMMOND*       CLOUDY    77  73  88 CALM      30.13R
HOUMA*         CLOUDY    79  72  80 CALM      30.11S
PORT FOURCHON* PTCLDY    88  75  66 S5        30.12S HX  97

$$

LAZ041-044-053-054-220200-
SOUTHWEST LOUISIANA

CITY           SKY/WX    TMP DP  RH WIND       PRES   REMARKS
LAKE CHARLES   CLOUDY    83  77  82 S6        30.08R
LAFAYETTE      CLOUDY    78  76  93 CALM      30.10R
PATTERSON      CLOUDY    77  75  94 CALM        N/A
SALT POINT       N/A     82  76  81 CALM      30.10S
NEW IBERIA     CLOUDY    79  76  90 E3        30.11S
CHENAULT AIRPK CLEAR     82  75  78 SE5       30.10R

$$

LAZ027-028-220200-
CENTRAL LOUISIANA

CITY           SKY/WX    TMP DP  RH WIND       PRES   REMARKS
FORT POLK      CLOUDY    79  73  82 SE8       30.08S
ALEXANDRIA INT CLOUDY    75  73  93 SE8       30.08S
ALEXANDRIA     CLOUDY    75  71  87 SE6       30.09F

$$

LAZ001-002-220200-
NORTHWEST LOUISIANA

CITY           SKY/WX    TMP DP  RH WIND       PRES   REMARKS
SHREVEPORT     MOCLDY    90  73  57 S8        30.03R HX  98
BARKSDALE AFB  MOCLDY    85  73  66 SE14      30.04R
DTN SHREVEPORT MOCLDY    86  73  65 SE10      30.03R

$$

LAZ014-016-220200-
NORTHEAST LOUISIANA

CITY           SKY/WX    TMP DP  RH WIND       PRES   REMARKS
MONROE         CLOUDY    78  71  79 S3        30.07F
TALLULAH       LGT RAIN  77  74  90 E3        30.10R

$$





U.S. Dept. of Commerce
NOAA National Weather Service
1325 East West Highway
Silver Spring, MD 20910
E-mail: w-nws.webmaster@noaa.gov
Page last modified: May 16, 2007
NATIONAL WEATHER SERVICE: for Safety, for Work, for Fun - FOR LIFE